Flag for Germany Weather past 2 weeks in Dorsten, North Rhine-Westphalia, Germany

Now
61 °F

Sunny.


Feels Like: 61 °F
Forecast: 57 / 63 °F
Wind: 2 mph from Southeast

Location: Essen

Current Time: Jul 7, 2015 at 6:54:20 AM

Latest Report: Jul 7, 2015 at 6:00 AM


Visibility: 34 mi

Pressure: 29.96 "Hg

Humidity: 72%

Dew point: 52 °F

Location of DorstenLocation

Historic Weather in Dorsten — Graph

°F

Dorsten temperature yesterday

Maximum temperature yesterday: 75 °F (at 5:00 PM)
Minimum temperature yesterday: 58 °F (at 6:00 AM)
Average temperature yesterday: 67 °F

Past Weeks' High & Low Weather Summary

 TemperatureHumidityPressure
High96 °F (Jul 2, 4:00 PM)100% (Jun 22, 10:00 AM)30.24 "Hg (Jun 22, 10:00 AM)
Low48 °F (Jun 23, 5:00 AM)24% (Jul 1, 5:00 PM)29.71 "Hg (Jun 22, 9:00 PM)
Average69 °F66%30.08 "Hg
* Reported Jun 22 5:00 AM — Jul 7 5:00 AM, Dorsten, Weather by CustomWeather, © 2015

Note: Actual official high and low records may vary slightly from our data, if they occured in-between our weather recording intervals... More about our weather records

Advertising

Dorsten weather history for previous 24 hours

 ConditionsComfort  
Time TempWeatherWind HumidityBarometerVisibility
5:00 AM
Tue, Jul 7
62 °FClear.2 mph68%29.98 "Hg37 mi
4:00 AM63 °FClear.1 mph64%29.99 "Hg37 mi
3:00 AM63 °FClear.2 mph66%30.01 "Hg37 mi
2:00 AM64 °FClear.1 mph63%30.03 "Hg40 mi
1:00 AM65 °FClear.1 mph61%30.05 "Hg43 mi
12:00 AM66 °FClear.1 mph59%30.06 "Hg43 mi
11:00 PM
Mon, Jul 6
67 °FClear.1 mph53%30.07 "Hg43 mi
10:00 PM69 °FClear.1 mph52%30.08 "Hg43 mi
9:00 PM72 °FSunny.1 mph46%30.08 "Hg43 mi
8:00 PM74 °FSunny.2 mph39%30.08 "Hg43 mi
7:00 PM75 °FSunny.5 mph41%30.10 "Hg43 mi
6:00 PM75 °FSunny.3 mph40%30.11 "Hg31 mi
5:00 PM75 °FSunny.5 mph38%30.13 "Hg43 mi
4:00 PM74 °FSunny.5 mph41%30.14 "Hg17 mi
3:00 PM74 °FPassing clouds.5 mph41%30.15 "Hg37 mi
2:00 PM73 °FPassing clouds.6 mph41%30.16 "Hg17 mi
1:00 PM71 °FPassing clouds.5 mph49%30.16 "Hg31 mi
12:00 PM69 °FScattered clouds.5 mph57%30.18 "Hg22 mi
11:00 AM66 °FScattered clouds.5 mph67%30.18 "Hg22 mi
10:00 AM63 °FOvercast.3 mph76%30.19 "Hg14 mi
9:00 AM61 °FOvercast.5 mph81%30.18 "Hg13 mi
8:00 AM60 °FPartly sunny.3 mph82%30.17 "Hg22 mi
7:00 AM59 °FSunny.3 mph85%30.16 "Hg22 mi
6:00 AM58 °FSunny.2 mph88%30.15 "Hg19 mi
Weather by CustomWeather, © 2015

See weather overviewHow to use our weather pages